Time,TemperatureF,DewpointF,PressureIn,WindDirection,WindDirectionDegrees,WindSpeedMPH,WindSpeedGustMPH,Humidity,HourlyPrecipIn,Conditions,Clouds,dailyrainin,SoftwareType,DateUTC
2013-09-19 00:00:00,64.8,41.2,29.85,SW,220,2.0,15.0,42,0.00,,---,0.00,VWS V14.01,2013-09-19 07:00:00,
2013-09-19 00:03:00,64.6,41.0,29.85,SW,224,5.0,7.0,42,0.00,,---,0.00,VWS V14.01,2013-09-19 07:03:00,
2013-09-19 00:08:00,64.3,40.7,29.85,WSW,257,4.0,8.0,42,0.00,,---,0.00,VWS V14.01,2013-09-19 07:08:00,
2013-09-19 00:13:00,64.3,40.7,29.85,West,281,2.0,8.0,42,0.00,,---,0.00,VWS V14.01,2013-09-19 07:13:00,
2013-09-19 00:18:00,64.4,40.2,29.85,WSW,238,5.0,8.0,41,0.00,,---,0.00,VWS V14.01,2013-09-19 07:18:00,
2013-09-19 00:23:00,64.4,40.2,29.85,WSW,257,3.0,9.0,41,0.00,,---,0.00,VWS V14.01,2013-09-19 07:23:00,
2013-09-19 00:28:00,64.5,39.7,29.85,West,269,3.0,9.0,40,0.00,,---,0.00,VWS V14.01,2013-09-19 07:28:00,
2013-09-19 00:30:00,64.5,39.7,29.85,West,269,3.0,9.0,40,0.00,,---,0.00,VWS V14.01,2013-09-19 07:30:00,
2013-09-19 00:32:00,64.5,39.0,29.85,WSW,253,2.0,8.0,39,0.00,,---,0.00,VWS V14.01,2013-09-19 07:32:00,
2013-09-19 00:37:00,64.5,38.3,29.85,West,277,6.0,8.0,38,0.00,,---,0.00,VWS V14.01,2013-09-19 07:37:00,
2013-09-19 00:42:00,64.7,38.5,29.85,WSW,242,6.0,8.0,38,0.00,,---,0.00,VWS V14.01,2013-09-19 07:42:00,
2013-09-19 00:47:00,64.9,38.0,29.85,WSW,245,5.0,8.0,37,0.00,,---,0.00,VWS V14.01,2013-09-19 07:47:00,
2013-09-19 00:52:00,65.0,37.4,29.85,West,266,3.0,8.0,36,0.00,,---,0.00,VWS V14.01,2013-09-19 07:52:00,
2013-09-19 00:57:00,65.0,37.4,29.85,West,271,3.0,8.0,36,0.00,,---,0.00,VWS V14.01,2013-09-19 07:57:00,
2013-09-19 01:00:00,65.0,37.4,29.85,West,271,3.0,8.0,36,0.00,,---,0.00,VWS V14.01,2013-09-19 08:00:00,
2013-09-19 01:02:00,65.1,36.8,29.85,WNW,299,2.0,6.0,35,0.00,,---,0.00,VWS V14.01,2013-09-19 08:02:00,
2013-09-19 01:07:00,65.1,36.1,29.85,SW,224,3.0,6.0,34,0.00,,---,0.00,VWS V14.01,2013-09-19 08:07:00,
2013-09-19 01:12:00,64.9,35.9,29.85,West,276,2.0,6.0,34,0.00,,---,0.00,VWS V14.01,2013-09-19 08:12:00,
2013-09-19 01:17:00,64.8,35.8,29.85,West,263,1.0,6.0,34,0.00,,---,0.00,VWS V14.01,2013-09-19 08:17:00,
2013-09-19 01:22:00,64.7,35.7,29.85,West,259,0.0,6.0,34,0.00,,---,0.00,VWS V14.01,2013-09-19 08:22:00,
2013-09-19 01:27:00,64.4,34.7,29.85,WSW,248,2.0,6.0,33,0.00,,---,0.00,VWS V14.01,2013-09-19 08:27:00,
2013-09-19 01:30:00,64.4,34.7,29.85,WSW,250,2.0,6.0,33,0.00,,---,0.00,VWS V14.01,2013-09-19 08:30:00,
2013-09-19 01:32:00,64.1,34.4,29.85,West,281,2.0,3.0,33,0.00,,---,0.00,VWS V14.01,2013-09-19 08:32:00,
2013-09-19 01:37:00,64.0,34.3,29.85,WSW,242,3.0,4.0,33,0.00,,---,0.00,VWS V14.01,2013-09-19 08:37:00,
2013-09-19 01:42:00,63.8,34.2,29.85,WSW,248,4.0,4.0,33,0.00,,---,0.00,VWS V14.01,2013-09-19 08:42:00,
2013-09-19 01:47:00,63.9,34.3,29.85,West,279,3.0,4.0,33,0.00,,---,0.00,VWS V14.01,2013-09-19 08:47:00,
2013-09-19 01:52:00,63.8,34.9,29.85,WSW,240,3.0,5.0,34,0.00,,---,0.00,VWS V14.01,2013-09-19 08:52:00,
2013-09-19 01:57:00,63.8,34.9,29.85,West,278,3.0,6.0,34,0.00,,---,0.00,VWS V14.01,2013-09-19 08:57:00,
2013-09-19 02:00:00,63.8,34.9,29.85,West,278,3.0,6.0,34,0.00,,---,0.00,VWS V14.01,2013-09-19 09:00:00,
2013-09-19 02:02:00,63.8,36.4,29.85,WNW,286,4.0,7.0,36,0.00,,---,0.00,VWS V14.01,2013-09-19 09:02:00,
2013-09-19 02:07:00,63.7,37.0,29.85,West,281,3.0,7.0,37,0.00,,---,0.00,VWS V14.01,2013-09-19 09:07:00,
2013-09-19 02:12:00,63.7,37.6,29.85,WSW,257,4.0,7.0,38,0.00,,---,0.00,VWS V14.01,2013-09-19 09:12:00,
2013-09-19 02:17:00,63.8,38.4,29.85,WSW,248,5.0,7.0,39,0.00,,---,0.00,VWS V14.01,2013-09-19 09:17:00,
2013-09-19 02:22:00,63.9,39.1,29.85,West,266,5.0,8.0,40,0.00,,---,0.00,VWS V14.01,2013-09-19 09:22:00,
2013-09-19 02:27:00,63.9,39.1,29.85,WNW,285,4.0,8.0,40,0.00,,---,0.00,VWS V14.01,2013-09-19 09:27:00,
2013-09-19 02:30:00,63.9,39.1,29.85,WNW,285,4.0,8.0,40,0.00,,---,0.00,VWS V14.01,2013-09-19 09:30:00,
2013-09-19 02:32:00,63.8,39.7,29.85,WSW,255,3.0,7.0,41,0.00,,---,0.00,VWS V14.01,2013-09-19 09:32:00,
2013-09-19 02:37:00,63.9,40.4,29.85,WSW,249,3.0,8.0,42,0.00,,---,0.00,VWS V14.01,2013-09-19 09:37:00,
2013-09-19 02:42:00,63.9,39.8,29.85,West,274,5.0,8.0,41,0.00,,---,0.00,VWS V14.01,2013-09-19 09:42:00,
2013-09-19 02:47:00,63.8,39.7,29.85,WSW,255,5.0,8.0,41,0.00,,---,0.00,VWS V14.01,2013-09-19 09:47:00,
2013-09-19 02:52:00,64.0,39.8,29.85,West,281,2.0,8.0,41,0.00,,---,0.00,VWS V14.01,2013-09-19 09:52:00,
2013-09-19 02:57:00,63.7,40.2,29.85,WSW,252,3.0,8.0,42,0.00,,---,0.00,VWS V14.01,2013-09-19 09:57:00,
2013-09-19 03:00:00,63.7,40.2,29.85,WSW,252,3.0,8.0,42,0.00,,---,0.00,VWS V14.01,2013-09-19 10:00:00,
2013-09-19 03:02:00,63.7,40.2,29.85,WNW,288,5.0,6.0,42,0.00,,---,0.00,VWS V14.01,2013-09-19 10:02:00,
2013-09-19 03:07:00,63.5,40.0,29.85,WSW,251,1.0,7.0,42,0.00,,---,0.00,VWS V14.01,2013-09-19 10:07:00,
2013-09-19 03:12:00,63.0,40.8,29.85,WSW,245,3.0,7.0,44,0.00,,---,0.00,VWS V14.01,2013-09-19 10:12:00,
2013-09-19 03:17:00,62.9,41.3,29.85,WNW,283,2.0,9.0,45,0.00,,---,0.00,VWS V14.01,2013-09-19 10:17:00,
2013-09-19 03:22:00,63.0,41.3,29.85,WSW,252,3.0,9.0,45,0.00,,---,0.00,VWS V14.01,2013-09-19 10:22:00,
2013-09-19 03:27:00,63.0,40.8,29.85,SW,229,2.0,9.0,44,0.00,,---,0.00,VWS V14.01,2013-09-19 10:27:00,
2013-09-19 03:30:00,63.1,40.9,29.85,West,276,2.0,9.0,44,0.00,,---,0.00,VWS V14.01,2013-09-19 10:30:00,
2013-09-19 03:32:00,63.0,40.8,29.85,West,267,2.0,6.0,44,0.00,,---,0.00,VWS V14.01,2013-09-19 10:32:00,
2013-09-19 03:37:00,62.7,41.1,29.85,SSW,202,2.0,6.0,45,0.00,,---,0.00,VWS V14.01,2013-09-19 10:37:00,
2013-09-19 03:42:00,62.5,41.5,29.85,WSW,248,5.0,9.0,46,0.00,,---,0.00,VWS V14.01,2013-09-19 10:42:00,
2013-09-19 03:47:00,62.6,41.0,29.85,West,259,3.0,9.0,45,0.00,,---,0.00,VWS V14.01,2013-09-19 10:47:00,
2013-09-19 03:52:00,62.6,41.0,29.85,West,263,4.0,9.0,45,0.00,,---,0.00,VWS V14.01,2013-09-19 10:52:00,
2013-09-19 03:57:00,62.2,41.2,29.85,WSW,257,3.0,9.0,46,0.00,,---,0.00,VWS V14.01,2013-09-19 10:57:00,
2013-09-19 04:00:00,62.2,41.2,29.85,WSW,252,3.0,9.0,46,0.00,,---,0.00,VWS V14.01,2013-09-19 11:00:00,
2013-09-19 04:02:00,62.3,41.8,29.85,WSW,244,8.0,8.0,47,0.00,,---,0.00,VWS V14.01,2013-09-19 11:02:00,
2013-09-19 04:07:00,62.5,41.5,29.85,West,274,3.0,8.0,46,0.00,,---,0.00,VWS V14.01,2013-09-19 11:07:00,
2013-09-19 04:12:00,62.5,40.9,29.85,West,274,3.0,8.0,45,0.00,,---,0.00,VWS V14.01,2013-09-19 11:12:00,
2013-09-19 04:17:00,62.4,41.4,29.85,WSW,243,2.0,8.0,46,0.00,,---,0.00,VWS V14.01,2013-09-19 11:17:00,
2013-09-19 04:22:00,62.1,40.5,29.85,West,260,3.0,8.0,45,0.00,,---,0.00,VWS V14.01,2013-09-19 11:22:00,
2013-09-19 04:27:00,61.8,40.3,29.85,West,267,1.0,8.0,45,0.00,,---,0.00,VWS V14.01,2013-09-19 11:27:00,
2013-09-19 04:30:00,61.8,40.3,29.85,WSW,245,2.0,8.0,45,0.00,,---,0.00,VWS V14.01,2013-09-19 11:30:00,
2013-09-19 04:32:00,61.6,40.1,29.85,WSW,253,3.0,5.0,45,0.00,,---,0.00,VWS V14.01,2013-09-19 11:32:00,
2013-09-19 04:37:00,61.4,39.3,29.85,WSW,250,1.0,6.0,44,0.00,,---,0.00,VWS V14.01,2013-09-19 11:37:00,
2013-09-19 04:42:00,61.1,39.6,29.85,West,266,2.0,6.0,45,0.00,,---,0.00,VWS V14.01,2013-09-19 11:42:00,
2013-09-19 04:47:00,61.2,39.7,29.85,WSW,243,4.0,6.0,45,0.00,,---,0.00,VWS V14.01,2013-09-19 11:47:00,
2013-09-19 04:52:00,60.9,39.4,29.85,West,276,3.0,6.0,45,0.00,,---,0.00,VWS V14.01,2013-09-19 11:52:00,
2013-09-19 04:57:00,60.6,39.2,29.85,West,267,3.0,6.0,45,0.00,,---,0.00,VWS V14.01,2013-09-19 11:57:00,
2013-09-19 05:00:00,60.6,39.2,29.85,West,262,3.0,6.0,45,0.00,,---,0.00,VWS V14.01,2013-09-19 12:00:00,
2013-09-19 05:02:00,60.6,39.2,29.86,SW,228,3.0,6.0,45,0.00,,---,0.00,VWS V14.01,2013-09-19 12:02:00,
2013-09-19 05:07:00,60.4,39.0,29.86,West,263,2.0,6.0,45,0.00,,---,0.00,VWS V14.01,2013-09-19 12:07:00,
2013-09-19 05:12:00,60.3,38.9,29.86,NW,308,2.0,6.0,45,0.00,,---,0.00,VWS V14.01,2013-09-19 12:12:00,
2013-09-19 05:17:00,58.7,39.1,29.86,WNW,293,0.0,6.0,48,0.00,,---,0.00,VWS V14.01,2013-09-19 12:17:00,
2013-09-19 05:22:00,56.9,38.5,29.86,WNW,294,2.0,6.0,50,0.00,,---,0.00,VWS V14.01,2013-09-19 12:22:00,
2013-09-19 05:27:00,56.0,38.2,29.86,NW,309,1.0,6.0,51,0.00,,---,0.00,VWS V14.01,2013-09-19 12:27:00,
2013-09-19 05:30:00,56.0,38.2,29.86,NW,309,1.0,6.0,51,0.00,,---,0.00,VWS V14.01,2013-09-19 12:30:00,
2013-09-19 05:32:00,55.3,38.5,29.86,West,263,1.0,3.0,53,0.00,,---,0.00,VWS V14.01,2013-09-19 12:32:00,
2013-09-19 05:37:00,55.4,38.6,29.86,West,263,1.0,4.0,53,0.00,,---,0.00,VWS V14.01,2013-09-19 12:37:00,
2013-09-19 05:42:00,55.2,39.3,29.86,WNW,297,0.0,4.0,55,0.00,,---,0.00,VWS V14.01,2013-09-19 12:42:00,
2013-09-19 05:47:00,54.9,39.0,29.86,West,278,0.0,4.0,55,0.00,,---,0.00,VWS V14.01,2013-09-19 12:47:00,
2013-09-19 05:52:00,55.0,39.6,29.87,NW,308,4.0,4.0,56,0.00,,---,0.00,VWS V14.01,2013-09-19 12:52:00,
2013-09-19 05:57:00,54.8,39.9,29.87,WSW,255,2.0,4.0,57,0.00,,---,0.00,VWS V14.01,2013-09-19 12:57:00,
2013-09-19 06:00:00,54.8,39.9,29.87,West,260,2.0,4.0,57,0.00,,---,0.00,VWS V14.01,2013-09-19 13:00:00,
2013-09-19 06:02:00,54.8,39.0,29.87,West,267,0.0,3.0,55,0.00,,---,0.00,VWS V14.01,2013-09-19 13:02:00,
2013-09-19 06:07:00,54.3,39.0,29.87,West,259,1.0,3.0,56,0.00,,---,0.00,VWS V14.01,2013-09-19 13:07:00,
2013-09-19 06:12:00,53.7,39.3,29.87,WSW,247,0.0,4.0,58,0.00,,---,0.00,VWS V14.01,2013-09-19 13:12:00,
2013-09-19 06:17:00,53.3,37.6,29.88,WNW,286,0.0,4.0,55,0.00,,---,0.00,VWS V14.01,2013-09-19 13:17:00,
2013-09-19 06:22:00,52.9,36.7,29.88,West,276,1.0,4.0,54,0.00,,---,0.00,VWS V14.01,2013-09-19 13:22:00,
2013-09-19 06:27:00,52.6,37.4,29.88,WSW,257,2.0,4.0,56,0.00,,---,0.00,VWS V14.01,2013-09-19 13:27:00,
2013-09-19 06:30:00,52.6,37.4,29.88,West,259,1.0,4.0,56,0.00,,---,0.00,VWS V14.01,2013-09-19 13:30:00,
2013-09-19 06:32:00,52.6,38.3,29.88,West,276,2.0,4.0,58,0.00,,---,0.00,VWS V14.01,2013-09-19 13:32:00,
2013-09-19 06:37:00,52.3,38.0,29.88,West,270,0.0,4.0,58,0.00,,---,0.00,VWS V14.01,2013-09-19 13:37:00,
2013-09-19 06:42:00,51.9,38.0,29.88,West,270,0.0,4.0,59,0.00,,---,0.00,VWS V14.01,2013-09-19 13:42:00,
2013-09-19 06:47:00,51.8,38.4,29.89,West,271,1.0,4.0,60,0.00,,---,0.00,VWS V14.01,2013-09-19 13:47:00,
2013-09-19 06:52:00,51.9,38.5,29.89,WSW,257,0.0,4.0,60,0.00,,---,0.00,VWS V14.01,2013-09-19 13:52:00,
2013-09-19 06:57:00,52.0,38.1,29.89,West,263,1.0,4.0,59,0.00,,---,0.00,VWS V14.01,2013-09-19 13:57:00,
2013-09-19 07:00:00,52.0,38.1,29.89,West,263,1.0,4.0,59,0.00,,---,0.00,VWS V14.01,2013-09-19 14:00:00,
2013-09-19 07:02:00,52.4,38.1,29.89,West,274,0.0,3.0,58,0.00,,---,0.00,VWS V14.01,2013-09-19 14:02:00,
2013-09-19 07:07:00,52.6,37.8,29.89,WSW,250,2.0,3.0,57,0.00,,---,0.00,VWS V14.01,2013-09-19 14:07:00,
2013-09-19 07:12:00,52.8,37.5,29.90,West,273,0.0,3.0,56,0.00,,---,0.00,VWS V14.01,2013-09-19 14:12:00,
2013-09-19 07:17:00,52.9,37.7,29.90,West,273,0.0,3.0,56,0.00,,---,0.00,VWS V14.01,2013-09-19 14:17:00,
2013-09-19 07:22:00,53.4,37.7,29.90,West,267,0.0,3.0,55,0.00,,---,0.00,VWS V14.01,2013-09-19 14:22:00,
2013-09-19 07:27:00,53.8,38.0,29.90,WSW,252,0.0,3.0,55,0.00,,---,0.00,VWS V14.01,2013-09-19 14:27:00,
2013-09-19 07:30:00,53.8,38.0,29.90,WSW,252,0.0,3.0,55,0.00,,---,0.00,VWS V14.01,2013-09-19 14:30:00,
2013-09-19 07:32:00,54.6,38.8,29.90,WSW,252,0.0,1.0,55,0.00,,---,0.00,VWS V14.01,2013-09-19 14:32:00,
2013-09-19 07:37:00,55.2,38.9,29.90,West,259,1.0,2.0,54,0.00,,---,0.00,VWS V14.01,2013-09-19 14:37:00,
2013-09-19 07:42:00,55.9,38.5,29.90,WNW,288,0.0,2.0,52,0.00,,---,0.00,VWS V14.01,2013-09-19 14:42:00,
2013-09-19 07:47:00,56.8,38.9,29.90,West,280,0.0,2.0,51,0.00,,---,0.00,VWS V14.01,2013-09-19 14:47:00,
2013-09-19 07:52:00,58.0,39.0,29.90,WSW,257,0.0,2.0,49,0.00,,---,0.00,VWS V14.01,2013-09-19 14:52:00,
2013-09-19 07:57:00,59.4,39.2,29.90,WSW,248,0.0,2.0,47,0.00,,---,0.00,VWS V14.01,2013-09-19 14:57:00,
2013-09-19 08:00:00,59.4,39.2,29.90,West,280,1.0,2.0,47,0.00,,---,0.00,VWS V14.01,2013-09-19 15:00:00,
2013-09-19 08:02:00,61.0,40.1,29.90,SW,218,0.0,3.0,46,0.00,,---,0.00,VWS V14.01,2013-09-19 15:02:00,
2013-09-19 08:07:00,62.1,40.0,29.90,West,269,0.0,3.0,44,0.00,,---,0.00,VWS V14.01,2013-09-19 15:07:00,
2013-09-19 08:12:00,63.3,39.8,29.90,West,266,1.0,3.0,42,0.00,,---,0.00,VWS V14.01,2013-09-19 15:12:00,
2013-09-19 08:17:00,64.5,39.7,29.91,West,267,1.0,3.0,40,0.00,,---,0.00,VWS V14.01,2013-09-19 15:17:00,
2013-09-19 08:22:00,65.6,40.7,29.90,WSW,248,1.0,3.0,40,0.00,,---,0.00,VWS V14.01,2013-09-19 15:22:00,
2013-09-19 08:27:00,66.7,39.6,29.90,West,263,0.0,3.0,37,0.00,,---,0.00,VWS V14.01,2013-09-19 15:27:00,
2013-09-19 08:30:00,66.7,39.6,29.90,West,264,0.0,3.0,37,0.00,,---,0.00,VWS V14.01,2013-09-19 15:30:00,
2013-09-19 08:32:00,67.6,39.7,29.91,West,259,0.0,2.0,36,0.00,,---,0.00,VWS V14.01,2013-09-19 15:32:00,
2013-09-19 08:37:00,68.6,39.9,29.91,West,273,0.0,2.0,35,0.00,,---,0.00,VWS V14.01,2013-09-19 15:37:00,
2013-09-19 08:42:00,69.3,39.8,29.91,West,276,0.0,2.0,34,0.00,,---,0.00,VWS V14.01,2013-09-19 15:42:00,
2013-09-19 08:47:00,70.3,39.9,29.91,West,269,0.0,2.0,33,0.00,,---,0.00,VWS V14.01,2013-09-19 15:47:00,
2013-09-19 08:52:00,71.9,38.8,29.91,West,269,0.0,2.0,30,0.00,,---,0.00,VWS V14.01,2013-09-19 15:52:00,
2013-09-19 08:57:00,74.2,38.1,29.91,South,191,0.0,2.0,27,0.00,,---,0.00,VWS V14.01,2013-09-19 15:57:00,
2013-09-19 09:00:00,74.2,38.1,29.91,South,191,0.0,2.0,27,0.00,,---,0.00,VWS V14.01,2013-09-19 16:00:00,
2013-09-19 09:02:00,75.5,37.2,29.91,South,190,0.0,0.0,25,0.00,,---,0.00,VWS V14.01,2013-09-19 16:02:00,
2013-09-19 09:07:00,76.9,37.4,29.92,ESE,117,0.0,1.0,24,0.00,,---,0.00,VWS V14.01,2013-09-19 16:07:00,
2013-09-19 09:12:00,77.9,37.2,29.91,ESE,115,0.0,1.0,23,0.00,,---,0.00,VWS V14.01,2013-09-19 16:12:00,
2013-09-19 09:17:00,78.3,36.4,29.92,East,86,3.0,4.0,22,0.00,,---,0.00,VWS V14.01,2013-09-19 16:17:00,
2013-09-19 09:22:00,77.3,36.7,29.92,East,93,2.0,5.0,23,0.00,,---,0.00,VWS V14.01,2013-09-19 16:22:00,
2013-09-19 09:27:00,77.4,35.6,29.92,ESE,114,7.0,8.0,22,0.00,,---,0.00,VWS V14.01,2013-09-19 16:27:00,
2013-09-19 09:30:00,77.4,35.6,29.92,ESE,115,5.0,8.0,22,0.00,,---,0.00,VWS V14.01,2013-09-19 16:30:00,
2013-09-19 09:32:00,77.3,35.5,29.92,East,94,6.0,7.0,22,0.00,,---,0.00,VWS V14.01,2013-09-19 16:32:00,
2013-09-19 09:37:00,77.8,34.8,29.92,ENE,78,4.0,7.0,21,0.00,,---,0.00,VWS V14.01,2013-09-19 16:37:00,
2013-09-19 09:42:00,78.2,33.9,29.92,ESE,119,5.0,7.0,20,0.00,,---,0.00,VWS V14.01,2013-09-19 16:42:00,
2013-09-19 09:47:00,78.7,34.3,29.92,ESE,107,5.0,7.0,20,0.00,,---,0.00,VWS V14.01,2013-09-19 16:47:00,
2013-09-19 09:52:00,78.8,31.8,29.92,ENE,77,3.0,7.0,18,0.00,,---,0.00,VWS V14.01,2013-09-19 16:52:00,
2013-09-19 09:57:00,78.7,31.7,29.92,East,90,5.0,8.0,18,0.00,,---,0.00,VWS V14.01,2013-09-19 16:57:00,
2013-09-19 10:00:00,78.7,31.7,29.92,ESE,105,4.0,8.0,18,0.00,,---,0.00,VWS V14.01,2013-09-19 17:00:00,
2013-09-19 10:02:00,79.0,30.5,29.92,East,98,5.0,8.0,17,0.00,,---,0.00,VWS V14.01,2013-09-19 17:02:00,
2013-09-19 10:07:00,79.2,32.1,29.92,ESE,116,8.0,9.0,18,0.00,,---,0.00,VWS V14.01,2013-09-19 17:07:00,
2013-09-19 10:12:00,79.4,29.3,29.92,ESE,105,3.0,13.0,16,0.00,,---,0.00,VWS V14.01,2013-09-19 17:12:00,
2013-09-19 10:17:00,79.7,28.0,29.92,ENE,76,8.0,13.0,15,0.00,,---,0.00,VWS V14.01,2013-09-19 17:17:00,
2013-09-19 10:22:00,79.9,28.2,29.92,East,99,6.0,13.0,15,0.00,,---,0.00,VWS V14.01,2013-09-19 17:22:00,
2013-09-19 10:27:00,80.1,29.9,29.92,ENE,68,7.0,13.0,16,0.00,,---,0.00,VWS V14.01,2013-09-19 17:27:00,
2013-09-19 10:30:00,80.1,29.9,29.92,ESE,120,5.0,13.0,16,0.00,,---,0.00,VWS V14.01,2013-09-19 17:30:00,
2013-09-19 10:32:00,80.3,28.5,29.92,ESE,111,6.0,10.0,15,0.00,,---,0.00,VWS V14.01,2013-09-19 17:32:00,
2013-09-19 10:37:00,80.6,25.3,29.92,East,92,7.0,11.0,13,0.00,,---,0.00,VWS V14.01,2013-09-19 17:37:00,
2013-09-19 10:42:00,80.7,27.1,29.92,ENE,72,6.0,11.0,14,0.00,,---,0.00,VWS V14.01,2013-09-19 17:42:00,
2013-09-19 10:47:00,81.1,27.4,29.92,ENE,60,3.0,11.0,14,0.00,,---,0.00,VWS V14.01,2013-09-19 17:47:00,
2013-09-19 10:52:00,81.4,27.7,29.92,ESE,103,5.0,11.0,14,0.00,,---,0.00,VWS V14.01,2013-09-19 17:52:00,
2013-09-19 10:57:00,81.7,26.1,29.92,ESE,103,7.0,11.0,13,0.00,,---,0.00,VWS V14.01,2013-09-19 17:57:00,
2013-09-19 11:00:00,81.7,26.1,29.92,ENE,65,5.0,11.0,13,0.00,,---,0.00,VWS V14.01,2013-09-19 18:00:00,
2013-09-19 11:02:00,81.9,26.3,29.92,East,85,9.0,12.0,13,0.00,,---,0.00,VWS V14.01,2013-09-19 18:02:00,
2013-09-19 11:07:00,81.8,26.2,29.92,East,79,5.0,15.0,13,0.00,,---,0.00,VWS V14.01,2013-09-19 18:07:00,
2013-09-19 11:12:00,82.0,24.4,29.92,ENE,71,6.0,15.0,12,0.00,,---,0.00,VWS V14.01,2013-09-19 18:12:00,
2013-09-19 11:17:00,82.2,24.6,29.92,East,79,6.0,15.0,12,0.00,,---,0.00,VWS V14.01,2013-09-19 18:17:00,
2013-09-19 11:22:00,82.2,26.5,29.92,ENE,68,4.0,15.0,13,0.00,,---,0.00,VWS V14.01,2013-09-19 18:22:00,
2013-09-19 11:27:00,82.6,26.8,29.92,SE,136,5.0,15.0,13,0.00,,---,0.00,VWS V14.01,2013-09-19 18:27:00,
2013-09-19 11:30:00,82.7,26.9,29.92,East,82,8.0,15.0,13,0.00,,---,0.00,VWS V14.01,2013-09-19 18:30:00,
2013-09-19 11:32:00,82.9,25.1,29.91,ESE,120,9.0,11.0,12,0.00,,---,0.00,VWS V14.01,2013-09-19 18:32:00,
2013-09-19 11:37:00,82.9,27.1,29.92,East,84,8.0,11.0,13,0.00,,---,0.00,VWS V14.01,2013-09-19 18:37:00,
2013-09-19 11:42:00,83.4,27.5,29.91,East,80,5.0,12.0,13,0.00,,---,0.00,VWS V14.01,2013-09-19 18:42:00,
2013-09-19 11:47:00,83.6,25.7,29.91,ESE,110,8.0,12.0,12,0.00,,---,0.00,VWS V14.01,2013-09-19 18:47:00,
2013-09-19 11:52:00,84.1,26.1,29.91,East,100,4.0,12.0,12,0.00,,---,0.00,VWS V14.01,2013-09-19 18:52:00,
2013-09-19 11:57:00,84.4,24.2,29.91,ENE,63,8.0,15.0,11,0.00,,---,0.00,VWS V14.01,2013-09-19 18:57:00,
2013-09-19 12:00:00,84.4,24.2,29.91,ENE,68,7.0,15.0,11,0.00,,---,0.00,VWS V14.01,2013-09-19 19:00:00,
2013-09-19 12:02:00,84.6,24.4,29.91,East,79,9.0,12.0,11,0.00,,---,0.00,VWS V14.01,2013-09-19 19:02:00,
2013-09-19 12:07:00,84.9,24.6,29.90,ENE,77,6.0,12.0,11,0.00,,---,0.00,VWS V14.01,2013-09-19 19:07:00,
2013-09-19 12:12:00,85.4,25.0,29.90,East,88,6.0,14.0,11,0.00,,---,0.00,VWS V14.01,2013-09-19 19:12:00,
2013-09-19 12:17:00,85.8,23.0,29.90,ENE,73,5.0,14.0,10,0.00,,---,0.00,VWS V14.01,2013-09-19 19:17:00,
2013-09-19 12:22:00,85.6,25.1,29.90,ESE,105,6.0,14.0,11,0.00,,---,0.00,VWS V14.01,2013-09-19 19:22:00,
2013-09-19 12:27:00,85.3,24.9,29.90,NE,51,3.0,14.0,11,0.00,,---,0.00,VWS V14.01,2013-09-19 19:27:00,
2013-09-19 12:30:00,85.3,24.9,29.90,East,86,5.0,14.0,11,0.00,,---,0.00,VWS V14.01,2013-09-19 19:30:00,
2013-09-19 12:32:00,86.3,23.4,29.90,NNE,26,4.0,11.0,10,0.00,,---,0.00,VWS V14.01,2013-09-19 19:32:00,
2013-09-19 12:37:00,86.7,23.7,29.90,East,79,6.0,12.0,10,0.00,,---,0.00,VWS V14.01,2013-09-19 19:37:00,
2013-09-19 12:42:00,86.7,23.7,29.90,ESE,109,12.0,13.0,10,0.00,,---,0.00,VWS V14.01,2013-09-19 19:42:00,
2013-09-19 12:47:00,86.9,23.8,29.90,East,79,6.0,13.0,10,0.00,,---,0.00,VWS V14.01,2013-09-19 19:47:00,
2013-09-19 12:52:00,86.9,23.8,29.89,ENE,77,5.0,13.0,10,0.00,,---,0.00,VWS V14.01,2013-09-19 19:52:00,
2013-09-19 12:57:00,86.5,23.5,29.89,SE,129,9.0,15.0,10,0.00,,---,0.00,VWS V14.01,2013-09-19 19:57:00,
2013-09-19 13:00:00,86.5,23.5,29.89,ESE,104,11.0,15.0,10,0.00,,---,0.00,VWS V14.01,2013-09-19 20:00:00,
2013-09-19 13:02:00,87.1,26.3,29.89,East,98,5.0,12.0,11,0.00,,---,0.00,VWS V14.01,2013-09-19 20:02:00,
2013-09-19 13:07:00,87.2,24.1,29.89,East,95,8.0,12.0,10,0.00,,---,0.00,VWS V14.01,2013-09-19 20:07:00,
2013-09-19 13:12:00,87.0,23.9,29.89,SE,125,5.0,13.0,10,0.00,,---,0.00,VWS V14.01,2013-09-19 20:12:00,
2013-09-19 13:17:00,87.5,24.3,29.89,SSE,155,6.0,15.0,10,0.00,,---,0.00,VWS V14.01,2013-09-19 20:17:00,
2013-09-19 13:22:00,87.9,26.9,29.88,ESE,110,7.0,16.0,11,0.00,,---,0.00,VWS V14.01,2013-09-19 20:22:00,
2013-09-19 13:27:00,87.8,24.5,29.88,ENE,77,4.0,16.0,10,0.00,,---,0.00,VWS V14.01,2013-09-19 20:27:00,
2013-09-19 13:30:00,87.7,24.4,29.88,ENE,73,4.0,16.0,10,0.00,,---,0.00,VWS V14.01,2013-09-19 20:30:00,
2013-09-19 13:32:00,87.7,24.5,29.88,ENE,68,11.0,11.0,10,0.00,,---,0.00,VWS V14.01,2013-09-19 20:32:00,
2013-09-19 13:37:00,88.3,24.9,29.88,ENE,72,6.0,14.0,10,0.00,,---,0.00,VWS V14.01,2013-09-19 20:37:00,
2013-09-19 13:42:00,88.0,24.7,29.88,ESE,105,9.0,14.0,10,0.00,,---,0.00,VWS V14.01,2013-09-19 20:42:00,
2013-09-19 13:47:00,88.3,27.2,29.87,NE,50,3.0,14.0,11,0.00,,---,0.00,VWS V14.01,2013-09-19 20:47:00,
2013-09-19 13:52:00,88.6,25.1,29.87,East,99,5.0,14.0,10,0.00,,---,0.00,VWS V14.01,2013-09-19 20:52:00,
2013-09-19 13:57:00,89.2,25.6,29.87,ESE,114,7.0,14.0,10,0.00,,---,0.00,VWS V14.01,2013-09-19 20:57:00,
2013-09-19 14:00:00,89.1,25.5,29.87,ESE,110,9.0,14.0,10,0.00,,---,0.00,VWS V14.01,2013-09-19 21:00:00,
2013-09-19 14:02:00,88.8,27.6,29.86,East,92,7.0,10.0,11,0.00,,---,0.00,VWS V14.01,2013-09-19 21:02:00,
2013-09-19 14:07:00,88.9,25.4,29.87,East,95,8.0,14.0,10,0.00,,---,0.00,VWS V14.01,2013-09-19 21:07:00,
2013-09-19 14:12:00,89.0,25.4,29.86,ENE,70,7.0,14.0,10,0.00,,---,0.00,VWS V14.01,2013-09-19 21:12:00,
2013-09-19 14:17:00,88.9,25.4,29.86,SE,128,2.0,14.0,10,0.00,,---,0.00,VWS V14.01,2013-09-19 21:17:00,
2013-09-19 14:22:00,89.2,25.6,29.86,ESE,110,6.0,16.0,10,0.00,,---,0.00,VWS V14.01,2013-09-19 21:22:00,
2013-09-19 14:27:00,89.4,25.7,29.86,NE,53,3.0,16.0,10,0.00,,---,0.00,VWS V14.01,2013-09-19 21:27:00,
2013-09-19 14:30:00,89.5,25.8,29.86,ESE,102,6.0,16.0,10,0.00,,---,0.00,VWS V14.01,2013-09-19 21:30:00,
2013-09-19 14:32:00,89.8,26.0,29.86,East,81,4.0,8.0,10,0.00,,---,0.00,VWS V14.01,2013-09-19 21:32:00,
2013-09-19 14:37:00,89.8,26.0,29.86,ENE,78,4.0,10.0,10,0.00,,---,0.00,VWS V14.01,2013-09-19 21:37:00,
2013-09-19 14:42:00,89.4,25.7,29.85,East,89,8.0,14.0,10,0.00,,---,0.00,VWS V14.01,2013-09-19 21:42:00,
2013-09-19 14:47:00,89.8,28.4,29.85,ESE,117,4.0,14.0,11,0.00,,---,0.00,VWS V14.01,2013-09-19 21:47:00,
2013-09-19 14:52:00,89.6,25.9,29.85,ENE,72,7.0,14.0,10,0.00,,---,0.00,VWS V14.01,2013-09-19 21:52:00,
2013-09-19 14:57:00,89.4,25.7,29.85,ENE,72,4.0,14.0,10,0.00,,---,0.00,VWS V14.01,2013-09-19 21:57:00,
2013-09-19 15:00:00,89.5,25.8,29.85,ENE,69,9.0,14.0,10,0.00,,---,0.00,VWS V14.01,2013-09-19 22:00:00,
2013-09-19 15:02:00,89.8,26.0,29.85,East,88,5.0,11.0,10,0.00,,---,0.00,VWS V14.01,2013-09-19 22:02:00,
2013-09-19 15:07:00,89.6,25.9,29.85,NE,36,5.0,11.0,10,0.00,,---,0.00,VWS V14.01,2013-09-19 22:07:00,
2013-09-19 15:12:00,89.9,23.6,29.84,ENE,58,5.0,13.0,9,0.00,,---,0.00,VWS V14.01,2013-09-19 22:12:00,
2013-09-19 15:17:00,89.7,23.4,29.84,ENE,73,3.0,13.0,9,0.00,,---,0.00,VWS V14.01,2013-09-19 22:17:00,
2013-09-19 15:22:00,89.6,25.9,29.84,ESE,108,6.0,13.0,10,0.00,,---,0.00,VWS V14.01,2013-09-19 22:22:00,
2013-09-19 15:27:00,89.7,26.0,29.84,NNE,16,8.0,13.0,10,0.00,,---,0.00,VWS V14.01,2013-09-19 22:27:00,
2013-09-19 15:30:00,89.8,23.5,29.84,NE,36,5.0,13.0,9,0.00,,---,0.00,VWS V14.01,2013-09-19 22:30:00,
2013-09-19 15:32:00,89.5,25.8,29.84,NE,47,1.0,9.0,10,0.00,,---,0.00,VWS V14.01,2013-09-19 22:32:00,
2013-09-19 15:37:00,90.0,26.2,29.84,ENE,77,5.0,9.0,10,0.00,,---,0.00,VWS V14.01,2013-09-19 22:37:00,
2013-09-19 15:42:00,89.9,26.1,29.84,East,79,7.0,10.0,10,0.00,,---,0.00,VWS V14.01,2013-09-19 22:42:00,
2013-09-19 15:47:00,90.1,23.7,29.84,ENE,70,8.0,10.0,9,0.00,,---,0.00,VWS V14.01,2013-09-19 22:47:00,
2013-09-19 15:52:00,90.1,26.3,29.83,East,81,0.0,10.0,10,0.00,,---,0.00,VWS V14.01,2013-09-19 22:52:00,
2013-09-19 15:57:00,90.3,23.9,29.83,East,98,9.0,11.0,9,0.00,,---,0.00,VWS V14.01,2013-09-19 22:57:00,
2013-09-19 16:00:00,90.3,23.9,29.83,ENE,77,3.0,11.0,9,0.00,,---,0.00,VWS V14.01,2013-09-19 23:00:00,
2013-09-19 16:02:00,90.4,26.5,29.83,ESE,113,8.0,8.0,10,0.00,,---,0.00,VWS V14.01,2013-09-19 23:02:00,
2013-09-19 16:07:00,90.0,26.2,29.83,SE,128,5.0,8.0,10,0.00,,---,0.00,VWS V14.01,2013-09-19 23:07:00,
2013-09-19 16:12:00,90.0,23.7,29.83,East,87,2.0,9.0,9,0.00,,---,0.00,VWS V14.01,2013-09-19 23:12:00,
2013-09-19 16:17:00,89.9,26.1,29.83,NNE,28,2.0,9.0,10,0.00,,---,0.00,VWS V14.01,2013-09-19 23:17:00,
2013-09-19 16:22:00,90.1,26.3,29.82,ENE,72,6.0,12.0,10,0.00,,---,0.00,VWS V14.01,2013-09-19 23:22:00,
2013-09-19 16:27:00,89.9,26.1,29.82,East,99,2.0,12.0,10,0.00,,---,0.00,VWS V14.01,2013-09-19 23:27:00,
2013-09-19 16:30:00,89.9,26.1,29.82,NE,50,8.0,12.0,10,0.00,,---,0.00,VWS V14.01,2013-09-19 23:30:00,
2013-09-19 16:32:00,89.8,26.0,29.82,ESE,123,8.0,9.0,10,0.00,,---,0.00,VWS V14.01,2013-09-19 23:32:00,
2013-09-19 16:37:00,89.5,25.8,29.82,ENE,65,2.0,11.0,10,0.00,,---,0.00,VWS V14.01,2013-09-19 23:37:00,
2013-09-19 16:42:00,89.6,25.9,29.82,NNE,24,5.0,11.0,10,0.00,,---,0.00,VWS V14.01,2013-09-19 23:42:00,
2013-09-19 16:47:00,89.7,26.0,29.82,ESE,108,5.0,11.0,10,0.00,,---,0.00,VWS V14.01,2013-09-19 23:47:00,
2013-09-19 16:52:00,89.7,26.0,29.82,East,99,3.0,11.0,10,0.00,,---,0.00,VWS V14.01,2013-09-19 23:52:00,
2013-09-19 16:57:00,89.6,25.9,29.82,ESE,112,3.0,11.0,10,0.00,,---,0.00,VWS V14.01,2013-09-19 23:57:00,
2013-09-19 17:00:00,89.6,25.9,29.82,ENE,77,4.0,11.0,10,0.00,,---,0.00,VWS V14.01,2013-09-20 00:00:00,
2013-09-19 17:02:00,89.5,25.8,29.81,ENE,63,1.0,5.0,10,0.00,,---,0.00,VWS V14.01,2013-09-20 00:02:00,
2013-09-19 17:07:00,89.6,25.9,29.82,NE,40,2.0,6.0,10,0.00,,---,0.00,VWS V14.01,2013-09-20 00:07:00,
2013-09-19 17:12:00,89.5,25.8,29.82,SE,140,1.0,6.0,10,0.00,,---,0.00,VWS V14.01,2013-09-20 00:12:00,
2013-09-19 17:17:00,89.5,25.8,29.81,East,96,1.0,7.0,10,0.00,,---,0.00,VWS V14.01,2013-09-20 00:17:00,
2013-09-19 17:22:00,89.6,25.9,29.81,NNE,29,4.0,7.0,10,0.00,,---,0.00,VWS V14.01,2013-09-20 00:22:00,
2013-09-19 17:27:00,89.3,28.0,29.81,SE,143,3.0,10.0,11,0.00,,---,0.00,VWS V14.01,2013-09-20 00:27:00,
2013-09-19 17:30:00,89.3,28.0,29.81,ESE,104,5.0,10.0,11,0.00,,---,0.00,VWS V14.01,2013-09-20 00:30:00,
2013-09-19 17:32:00,89.0,27.7,29.81,SE,125,5.0,6.0,11,0.00,,---,0.00,VWS V14.01,2013-09-20 00:32:00,
2013-09-19 17:37:00,89.2,25.6,29.81,ENE,78,2.0,6.0,10,0.00,,---,0.00,VWS V14.01,2013-09-20 00:37:00,
2013-09-19 17:42:00,89.2,25.6,29.81,East,80,1.0,6.0,10,0.00,,---,0.00,VWS V14.01,2013-09-20 00:42:00,
2013-09-19 17:47:00,89.0,25.4,29.81,East,84,0.0,6.0,10,0.00,,---,0.00,VWS V14.01,2013-09-20 00:47:00,
2013-09-19 17:52:00,88.9,25.4,29.81,NE,49,4.0,6.0,10,0.00,,---,0.00,VWS V14.01,2013-09-20 00:52:00,
2013-09-19 17:57:00,88.6,25.1,29.81,East,80,2.0,9.0,10,0.00,,---,0.00,VWS V14.01,2013-09-20 00:57:00,
2013-09-19 18:00:00,88.5,25.0,29.81,ENE,77,0.0,9.0,10,0.00,,---,0.00,VWS V14.01,2013-09-20 01:00:00,
2013-09-19 18:02:00,88.5,25.0,29.81,ENE,70,2.0,5.0,10,0.00,,---,0.00,VWS V14.01,2013-09-20 01:02:00,
2013-09-19 18:07:00,88.3,24.9,29.81,East,93,2.0,5.0,10,0.00,,---,0.00,VWS V14.01,2013-09-20 01:07:00,
2013-09-19 18:12:00,88.2,24.8,29.81,NNE,33,2.0,5.0,10,0.00,,---,0.00,VWS V14.01,2013-09-20 01:12:00,
2013-09-19 18:17:00,88.0,24.7,29.81,ENE,60,1.0,5.0,10,0.00,,---,0.00,VWS V14.01,2013-09-20 01:17:00,
2013-09-19 18:22:00,87.7,24.5,29.81,ENE,76,3.0,5.0,10,0.00,,---,0.00,VWS V14.01,2013-09-20 01:22:00,
2013-09-19 18:27:00,87.3,26.4,29.81,East,82,0.0,5.0,11,0.00,,---,0.00,VWS V14.01,2013-09-20 01:27:00,
2013-09-19 18:30:00,87.2,26.4,29.81,East,83,1.0,5.0,11,0.00,,---,0.00,VWS V14.01,2013-09-20 01:30:00,
2013-09-19 18:32:00,86.8,26.0,29.81,East,86,1.0,4.0,11,0.00,,---,0.00,VWS V14.01,2013-09-20 01:32:00,
2013-09-19 18:37:00,86.3,25.7,29.81,East,86,0.0,4.0,11,0.00,,---,0.00,VWS V14.01,2013-09-20 01:37:00,
2013-09-19 18:42:00,85.6,27.2,29.81,East,88,0.0,4.0,12,0.00,,---,0.00,VWS V14.01,2013-09-20 01:42:00,
2013-09-19 18:47:00,84.3,31.7,29.81,SSW,198,1.0,4.0,15,0.00,,---,0.00,VWS V14.01,2013-09-20 01:47:00,
2013-09-19 18:51:00,83.0,33.7,29.81,SSW,198,1.0,4.0,17,0.00,,---,0.00,VWS V14.01,2013-09-20 01:51:00,
2013-09-19 18:56:00,82.0,38.2,29.81,SSW,210,0.0,4.0,21,0.00,,---,0.00,VWS V14.01,2013-09-20 01:56:00,
2013-09-19 19:00:00,81.8,38.1,29.81,SSW,210,0.0,4.0,21,0.00,,---,0.00,VWS V14.01,2013-09-20 02:00:00,
2013-09-19 19:01:00,81.1,37.5,29.82,SSW,210,0.0,1.0,21,0.00,,---,0.00,VWS V14.01,2013-09-20 02:01:00,
2013-09-19 19:06:00,79.7,38.7,29.82,SSW,210,0.0,1.0,23,0.00,,---,0.00,VWS V14.01,2013-09-20 02:06:00,
2013-09-19 19:11:00,78.8,39.0,29.82,SW,219,0.0,1.0,24,0.00,,---,0.00,VWS V14.01,2013-09-20 02:11:00,
2013-09-19 19:16:00,78.2,38.5,29.82,West,271,0.0,2.0,24,0.00,,---,0.00,VWS V14.01,2013-09-20 02:16:00,
2013-09-19 19:21:00,77.4,37.8,29.82,SE,134,0.0,2.0,24,0.00,,---,0.00,VWS V14.01,2013-09-20 02:21:00,
2013-09-19 19:26:00,76.5,38.1,29.82,WNW,296,2.0,3.0,25,0.00,,---,0.00,VWS V14.01,2013-09-20 02:26:00,
2013-09-19 19:30:00,76.4,35.9,29.82,WNW,300,1.0,4.0,23,0.00,,---,0.00,VWS V14.01,2013-09-20 02:30:00,
2013-09-19 19:31:00,76.0,34.5,29.83,WNW,300,1.0,3.0,22,0.00,,---,0.00,VWS V14.01,2013-09-20 02:31:00,
2013-09-19 19:36:00,75.8,35.4,29.83,NW,305,0.0,5.0,23,0.00,,---,0.00,VWS V14.01,2013-09-20 02:36:00,
2013-09-19 19:41:00,75.2,34.9,29.83,West,269,1.0,5.0,23,0.00,,---,0.00,VWS V14.01,2013-09-20 02:41:00,
2013-09-19 19:46:00,74.4,34.2,29.83,WSW,257,0.0,5.0,23,0.00,,---,0.00,VWS V14.01,2013-09-20 02:46:00,
2013-09-19 19:51:00,73.7,35.7,29.83,WSW,240,2.0,5.0,25,0.00,,---,0.00,VWS V14.01,2013-09-20 02:51:00,
2013-09-19 19:56:00,73.2,35.3,29.83,WSW,238,1.0,5.0,25,0.00,,---,0.00,VWS V14.01,2013-09-20 02:56:00,
2013-09-19 20:00:00,73.1,35.2,29.83,WSW,257,1.0,5.0,25,0.00,,---,0.00,VWS V14.01,2013-09-20 03:00:00,
2013-09-19 20:01:00,72.5,35.7,29.83,SW,221,2.0,2.0,26,0.00,,---,0.00,VWS V14.01,2013-09-20 03:01:00,
2013-09-19 20:06:00,72.1,37.2,29.84,West,260,0.0,3.0,28,0.00,,---,0.00,VWS V14.01,2013-09-20 03:06:00,
2013-09-19 20:11:00,71.7,37.8,29.84,West,261,1.0,3.0,29,0.00,,---,0.00,VWS V14.01,2013-09-20 03:11:00,
2013-09-19 20:16:00,71.3,38.3,29.84,West,259,2.0,3.0,30,0.00,,---,0.00,VWS V14.01,2013-09-20 03:16:00,
2013-09-19 20:21:00,70.9,38.0,29.84,West,281,2.0,3.0,30,0.00,,---,0.00,VWS V14.01,2013-09-20 03:21:00,
2013-09-19 20:26:00,70.6,39.3,29.84,West,263,2.0,4.0,32,0.00,,---,0.00,VWS V14.01,2013-09-20 03:26:00,
2013-09-19 20:30:00,70.6,39.3,29.84,West,263,1.0,4.0,32,0.00,,---,0.00,VWS V14.01,2013-09-20 03:30:00,
2013-09-19 20:31:00,70.5,39.2,29.84,WSW,243,0.0,4.0,32,0.00,,---,0.00,VWS V14.01,2013-09-20 03:31:00,
2013-09-19 20:36:00,69.9,40.3,29.84,WSW,257,1.0,4.0,34,0.00,,---,0.00,VWS V14.01,2013-09-20 03:36:00,
2013-09-19 20:41:00,69.6,40.8,29.84,West,280,1.0,4.0,35,0.00,,---,0.00,VWS V14.01,2013-09-20 03:41:00,
2013-09-19 20:46:00,69.5,41.4,29.85,WSW,238,2.0,4.0,36,0.00,,---,0.00,VWS V14.01,2013-09-20 03:46:00,
2013-09-19 20:51:00,69.6,42.2,29.85,WSW,253,1.0,4.0,37,0.00,,---,0.00,VWS V14.01,2013-09-20 03:51:00,
2013-09-19 20:56:00,69.7,42.3,29.85,WSW,256,2.0,4.0,37,0.00,,---,0.00,VWS V14.01,2013-09-20 03:56:00,
2013-09-19 21:00:00,69.7,42.3,29.85,WSW,255,1.0,4.0,37,0.00,,---,0.00,VWS V14.01,2013-09-20 04:00:00,
2013-09-19 21:01:00,69.7,42.3,29.85,SW,235,1.0,4.0,37,0.00,,---,0.00,VWS V14.01,2013-09-20 04:01:00,
2013-09-19 21:06:00,69.5,41.4,29.85,WSW,242,2.0,6.0,36,0.00,,---,0.00,VWS V14.01,2013-09-20 04:06:00,
2013-09-19 21:11:00,69.5,42.8,29.85,West,267,3.0,6.0,38,0.00,,---,0.00,VWS V14.01,2013-09-20 04:11:00,
2013-09-19 21:16:00,69.1,43.1,29.85,West,269,2.0,6.0,39,0.00,,---,0.00,VWS V14.01,2013-09-20 04:16:00,
2013-09-19 21:21:00,68.9,43.6,29.85,West,277,4.0,6.0,40,0.00,,---,0.00,VWS V14.01,2013-09-20 04:21:00,
2013-09-19 21:26:00,68.8,42.9,29.85,WSW,245,2.0,6.0,39,0.00,,---,0.00,VWS V14.01,2013-09-20 04:26:00,
2013-09-19 21:30:00,68.8,42.9,29.85,WSW,255,4.0,6.0,39,0.00,,---,0.00,VWS V14.01,2013-09-20 04:30:00,
2013-09-19 21:31:00,68.7,42.1,29.85,WSW,246,3.0,7.0,38,0.00,,---,0.00,VWS V14.01,2013-09-20 04:31:00,
2013-09-19 21:36:00,68.7,42.8,29.85,WNW,289,3.0,7.0,39,0.00,,---,0.00,VWS V14.01,2013-09-20 04:36:00,
2013-09-19 21:41:00,68.6,42.0,29.85,West,263,4.0,7.0,38,0.00,,---,0.00,VWS V14.01,2013-09-20 04:41:00,
2013-09-19 21:46:00,68.6,42.7,29.85,WNW,300,3.0,7.0,39,0.00,,---,0.00,VWS V14.01,2013-09-20 04:46:00,
2013-09-19 21:51:00,68.7,42.8,29.85,West,266,3.0,7.0,39,0.00,,---,0.00,VWS V14.01,2013-09-20 04:51:00,
2013-09-19 21:56:00,68.5,42.6,29.86,WSW,257,4.0,7.0,39,0.00,,---,0.00,VWS V14.01,2013-09-20 04:56:00,
2013-09-19 22:00:00,68.4,42.5,29.86,SW,232,2.0,7.0,39,0.00,,---,0.00,VWS V14.01,2013-09-20 05:00:00,
2013-09-19 22:01:00,68.2,42.3,29.85,WSW,245,3.0,5.0,39,0.00,,---,0.00,VWS V14.01,2013-09-20 05:01:00,
2013-09-19 22:06:00,67.6,41.8,29.86,WSW,253,3.0,6.0,39,0.00,,---,0.00,VWS V14.01,2013-09-20 05:06:00,
2013-09-19 22:11:00,67.4,40.9,29.86,WSW,252,2.0,6.0,38,0.00,,---,0.00,VWS V14.01,2013-09-20 05:11:00,
2013-09-19 22:16:00,67.5,41.7,29.86,WSW,245,1.0,6.0,39,0.00,,---,0.00,VWS V14.01,2013-09-20 05:16:00,
2013-09-19 22:21:00,67.3,42.2,29.86,WSW,242,2.0,6.0,40,0.00,,---,0.00,VWS V14.01,2013-09-20 05:21:00,
2013-09-19 22:26:00,67.1,41.3,29.86,WSW,240,1.0,6.0,39,0.00,,---,0.00,VWS V14.01,2013-09-20 05:26:00,
2013-09-19 22:30:00,67.1,41.3,29.86,WSW,242,1.0,6.0,39,0.00,,---,0.00,VWS V14.01,2013-09-20 05:30:00,
2013-09-19 22:31:00,67.1,41.3,29.86,West,269,2.0,5.0,39,0.00,,---,0.00,VWS V14.01,2013-09-20 05:31:00,
2013-09-19 22:36:00,67.1,40.7,29.86,West,264,2.0,5.0,38,0.00,,---,0.00,VWS V14.01,2013-09-20 05:36:00,
2013-09-19 22:41:00,67.0,40.6,29.86,WSW,257,1.0,5.0,38,0.00,,---,0.00,VWS V14.01,2013-09-20 05:41:00,
2013-09-19 22:46:00,67.1,41.3,29.86,West,273,2.0,5.0,39,0.00,,---,0.00,VWS V14.01,2013-09-20 05:46:00,
2013-09-19 22:51:00,67.1,41.3,29.86,WSW,257,2.0,5.0,39,0.00,,---,0.00,VWS V14.01,2013-09-20 05:51:00,
2013-09-19 22:56:00,66.7,40.3,29.86,WSW,257,1.0,5.0,38,0.00,,---,0.00,VWS V14.01,2013-09-20 05:56:00,
2013-09-19 23:00:00,66.6,40.2,29.85,SW,218,0.0,5.0,38,0.00,,---,0.00,VWS V14.01,2013-09-20 06:00:00,
2013-09-19 23:01:00,66.3,40.0,29.85,West,269,1.0,3.0,38,0.00,,---,0.00,VWS V14.01,2013-09-20 06:01:00,
2013-09-19 23:06:00,66.3,40.0,29.85,SW,232,2.0,3.0,38,0.00,,---,0.00,VWS V14.01,2013-09-20 06:06:00,
2013-09-19 23:11:00,66.2,39.9,29.85,SW,224,4.0,4.0,38,0.00,,---,0.00,VWS V14.01,2013-09-20 06:11:00,
2013-09-19 23:16:00,66.1,39.1,29.85,SW,235,3.0,4.0,37,0.00,,---,0.00,VWS V14.01,2013-09-20 06:16:00,
2013-09-19 23:21:00,65.7,38.0,29.85,WSW,242,2.0,4.0,36,0.00,,---,0.00,VWS V14.01,2013-09-20 06:21:00,
2013-09-19 23:26:00,65.6,38.7,29.85,WSW,238,2.0,6.0,37,0.00,,---,0.00,VWS V14.01,2013-09-20 06:26:00,
2013-09-19 23:30:00,65.7,38.0,29.86,West,264,1.0,6.0,36,0.00,,---,0.00,VWS V14.01,2013-09-20 06:30:00,
2013-09-19 23:31:00,65.8,38.1,29.85,WSW,249,1.0,3.0,36,0.00,,---,0.00,VWS V14.01,2013-09-20 06:31:00,
2013-09-19 23:36:00,65.7,38.7,29.85,WSW,252,0.0,4.0,37,0.00,,---,0.00,VWS V14.01,2013-09-20 06:36:00,
2013-09-19 23:41:00,65.5,39.2,29.85,WSW,255,3.0,4.0,38,0.00,,---,0.00,VWS V14.01,2013-09-20 06:41:00,
2013-09-19 23:46:00,65.5,38.6,29.85,WSW,255,3.0,4.0,37,0.00,,---,0.00,VWS V14.01,2013-09-20 06:46:00,
2013-09-19 23:51:00,65.5,37.9,29.85,WSW,240,3.0,5.0,36,0.00,,---,0.00,VWS V14.01,2013-09-20 06:51:00,
2013-09-19 23:56:00,65.1,36.8,29.85,WSW,257,1.0,5.0,35,0.00,,---,0.00,VWS V14.01,2013-09-20 06:56:00,